DW5411 Weather Reports


Display with metric or nautical units.
time (UTC)temp
F
wind
direction
speed
MPH
gust
MPH
rain 1hr
in
rain 24hr
in
rain mn
in
humidity
%
barometer
mb
20260906113759 76 13 0.0 0.0 0.00 0.00 0.00 91 1013.0
20260906113258 76 13 0.0 0.0 0.00 0.00 0.00 91 1013.1
20260906112758 76 13 0.0 0.0 0.00 0.00 0.00 91 1013.2
20260906112258 76 13 0.0 0.0 0.00 0.00 0.00 90 1013.3
20260906111758 76 13 0.0 0.0 0.00 0.00 0.00 90 1013.3
20260906111258 76 13 0.0 0.0 0.00 0.00 0.00 90 1013.2
20260906110758 76 13 0.0 0.0 0.00 0.00 0.00 90 1013.3
20260906110258 77 13 0.0 0.0 0.00 0.00 0.00 89 1013.4
20260906105758 77 13 0.0 0.0 0.00 0.00 0.00 89 1013.3
20260906105258 77 13 0.0 0.0 0.00 0.00 0.00 89 1013.3
20260906104258 77 13 0.0 0.0 0.00 0.00 0.00 88 1013.3
20260906103757 77 13 0.0 0.0 0.00 0.00 0.00 88 1013.3
20260906103257 77 13 0.0 2.0 0.00 0.00 0.00 88 1013.3
20260906102757 77 13 0.0 5.0 0.00 0.00 0.00 88 1013.3
20260906102257 77 13 1.0 5.0 0.00 0.00 0.00 88 1013.4
20260906101257 77 50 1.0 5.0 0.00 0.00 0.00 90 1013.6
20260906100757 77 14 1.0 4.0 0.00 0.00 0.00 90 1013.7
20260906100257 77 345 0.0 0.0 0.00 0.00 0.00 90 1013.8
20260906095757 77 345 0.0 2.0 0.00 0.00 0.00 90 1013.8
20260906095257 77 345 0.0 2.0 0.00 0.00 0.00 89 1013.7
20260906094757 78 345 1.0 4.0 0.00 0.00 0.00 89 1013.6
20260906094257 78 345 1.0 4.0 0.00 0.00 0.00 89 1013.5
20260906093756 77 29 2.0 5.0 0.00 0.00 0.00 90 1013.4
20260906093257 77 355 3.0 5.0 0.00 0.00 0.00 90 1013.3
20260906092756 77 328 3.0 4.0 0.00 0.00 0.00 91 1013.2
20260906091756 78 285 0.0 0.0 0.00 0.00 0.00 91 1013.0
20260906091256 78 266 0.0 0.0 0.00 0.00 0.00 91 1012.9
20260906090756 78 266 0.0 0.0 0.00 0.00 0.00 91 1012.8
20260906090256 78 266 0.0 0.0 0.00 0.00 0.00 91 1012.9
20260906085756 78 266 0.0 0.0 0.00 0.00 0.00 91 1012.9
20260906084756 78 259 0.0 0.0 0.00 0.00 0.00 91 1012.7
20260906083755 78 249 0.0 0.0 0.00 0.00 0.00 91 1012.6
20260906083255 78 247 0.0 0.0 0.00 0.00 0.00 91 1012.7
20260906082755 78 240 0.0 3.0 0.00 0.00 0.00 92 1012.7
20260906082255 78 234 0.0 3.0 0.00 0.00 0.00 92 1012.7
20260906081755 78 257 1.0 3.0 0.00 0.00 0.00 92 1012.6
20260906080755 78 275 1.0 3.0 0.00 0.00 0.00 92 1012.7
20260906080255 78 275 1.0 3.0 0.00 0.00 0.00 92 1012.7
20260906075755 78 275 1.0 3.0 0.00 0.00 0.00 92 1012.8
20260906075254 78 272 2.0 2.0 0.00 0.00 0.00 92 1012.8
20260906074754 78 272 0.0 3.0 0.00 0.00 0.00 92 1012.9
20260906074254 78 272 1.0 3.0 0.00 0.00 0.00 92 1012.8
20260906073254 77 279 1.0 5.0 0.00 0.00 0.00 92 1012.8
20260906072754 77 289 3.0 4.0 0.00 0.00 0.00 92 1012.8
20260906072254 77 259 1.0 1.0 0.00 0.00 0.00 92 1012.7
20260906071754 77 252 0.0 0.0 0.00 0.00 0.00 91 1012.6
20260906071254 78 252 0.0 0.0 0.00 0.00 0.00 91 1012.6
20260906070754 78 252 0.0 0.0 0.00 0.00 0.00 91 1012.8
20260906070254 78 252 0.0 0.0 0.00 0.00 0.00 90 1012.9
20260906065753 78 252 0.0 0.0 0.00 0.00 0.00 90 1012.9
20260906065253 78 252 0.0 1.0 0.00 0.00 0.00 90 1012.9
20260906064753 78 252 0.0 2.0 0.00 0.00 0.00 90 1013.0
20260906062753 78 221 3.0 3.0 0.00 0.00 0.00 90 1012.9
20260906061753 79 218 1.0 2.0 0.00 0.00 0.00 90 1013.1
20260906061252 79 218 1.0 2.0 0.00 0.00 0.00 90 1013.2
20260906060752 79 217 1.0 3.0 0.00 0.00 0.00 90 1013.3
20260906060252 79 219 2.0 3.0 0.00 0.00 0.00 90 1013.4
20260906055752 79 219 2.0 3.0 0.00 0.00 0.00 90 1013.4
20260906055252 79 219 3.0 4.0 0.00 0.00 0.00 90 1013.4
20260906054752 79 204 0.0 4.0 0.00 0.00 0.00 90 1013.5
20260906053752 79 207 1.0 5.0 0.00 0.00 0.00 90 1013.3
20260906053252 79 232 2.0 3.0 0.00 0.00 0.00 90 1013.4
20260906052752 79 236 0.0 0.0 0.00 0.00 0.00 90 1013.3
20260906052251 79 236 0.0 2.0 0.00 0.00 0.00 90 1013.5
20260906051751 79 236 0.0 2.0 0.00 0.00 0.00 89 1013.7
20260906051252 79 236 0.0 3.0 0.00 0.00 0.00 89 1013.7
20260906050751 80 236 2.0 3.0 0.00 0.00 0.00 89 1013.7
20260906050251 80 239 2.0 3.0 0.00 0.00 0.00 88 1013.6
20260906045751 80 239 0.0 3.0 0.00 0.00 0.00 89 1013.7
20260906045251 80 241 3.0 5.0 0.00 0.00 0.00 89 1013.5
20260906044751 79 267 1.0 5.0 0.00 0.00 0.00 89 1013.6
20260906044251 79 229 2.0 4.0 0.00 0.00 0.00 90 1013.6
20260906043751 79 311 0.0 0.0 0.00 0.00 0.00 89 1013.7
20260906043251 79 311 0.0 0.0 0.00 0.00 0.00 89 1013.7
20260906042251 80 311 0.0 0.0 0.00 0.00 0.00 89 1013.7
20260906041751 80 311 0.0 0.0 0.00 0.00 0.00 89 1013.7
20260906041251 80 312 0.0 0.0 0.00 0.00 0.00 88 1013.7
20260906040250 80 312 0.0 3.0 0.00 0.00 0.00 88 1013.9
20260906035750 80 312 0.0 3.0 0.00 0.00 0.00 88 1013.9
20260906035250 80 316 0.0 0.0 0.00 0.00 0.00 88 1013.7
20260906034750 80 316 0.0 0.0 0.00 0.00 0.00 88 1013.6
20260906033750 81 148 0.0 0.0 0.00 0.00 0.00 87 1013.6
20260906033250 81 148 0.0 0.0 0.00 0.00 0.00 86 1013.4
20260906032750 81 148 0.0 0.0 0.00 0.00 0.00 86 1013.5
20260906032250 81 148 0.0 0.0 0.00 0.00 0.00 86 1013.6
20260906031750 82 148 0.0 0.0 0.00 0.00 0.00 86 1013.7
20260906031250 82 148 0.0 2.0 0.00 0.00 0.00 85 1013.9
20260906030749 82 148 0.0 2.0 0.00 0.00 0.00 85 1013.7
20260906030249 82 148 2.0 6.0 0.00 0.00 0.00 85 1013.5
20260906025749 82 140 1.0 6.0 0.00 0.00 0.00 85 1013.8
20260906025249 82 91 3.0 6.0 0.00 0.00 0.00 85 1013.8
20260906024249 82 212 1.0 4.0 0.00 0.00 0.00 84 1013.3
20260906023749 82 212 1.0 4.0 0.00 0.00 0.00 84 1013.1
20260906023249 83 211 1.0 3.0 0.00 0.00 0.00 84 1013.1
20260906022748 83 211 1.0 3.0 0.00 0.00 0.00 83 1013.2
20260906022249 83 211 1.0 3.0 0.00 0.00 0.00 83 1013.2
20260906021248 83 211 2.0 3.0 0.00 0.00 0.00 83 1013.2
20260906020748 83 212 2.0 3.0 0.00 0.00 0.00 82 1013.2
20260906020248 84 212 3.0 4.0 0.00 0.00 0.00 82 1013.1
20260906015748 84 212 2.0 7.0 0.00 0.00 0.00 82 1013.0
20260906015248 84 208 3.0 7.0 0.00 0.00 0.00 82 1012.9
20260906014748 84 253 4.0 6.0 0.00 0.00 0.00 81 1012.6
20260906014248 84 257 2.0 7.0 0.00 0.00 0.00 81 1012.7
20260906013748 84 218 5.0 7.0 0.00 0.00 0.00 81 1012.7
20260906013248 85 196 3.0 5.0 0.00 0.00 0.00 80 1012.6
20260906012247 85 234 5.0 9.0 0.00 0.00 0.00 80 1012.4
20260906011747 85 226 1.0 8.0 0.00 0.00 0.00 79 1012.4
20260906010817 86 243 5.0 8.0 0.00 0.00 0.00 79 1012.3
20260906010317 86 224 2.0 9.0 0.00 0.00 0.00 78 1012.1
20260906005817 86 211 4.0 9.0 0.00 0.00 0.00 78 1011.7
20260906005317 86 227 3.0 7.0 0.00 0.00 0.00 77 1011.6
20260906004746 87 225 6.0 7.0 0.00 0.00 0.00 77 1011.4
20260906004246 87 231 3.0 9.0 0.00 0.00 0.00 76 1011.4
20260906003746 87 207 3.0 9.0 0.00 0.00 0.00 75 1011.5
20260906002816 88 207 5.0 7.0 0.00 0.00 0.00 74 1011.5
20260906001245 89 240 3.0 6.0 0.00 0.00 0.00 73 1011.6
20260906000745 89 216 2.0 7.0 0.00 0.00 0.00 72 1011.6
20260906000315 90 206 4.0 7.0 0.00 0.00 0.00 71 1011.6
20260905235815 90 217 4.0 8.0 0.00 0.00 0.00 71 1011.6
20260905235315 91 215 4.0 9.0 0.00 0.00 0.00 70 1011.5
20260905234745 91 205 1.0 9.0 0.00 0.00 0.00 69 1011.5
20260905234315 91 213 4.0 8.0 0.00 0.00 0.00 69 1011.4
20260905233314 92 228 2.0 5.0 0.00 0.00 0.00 67 1011.4
20260905232814 92 210 2.0 6.0 0.00 0.00 0.00 67 1011.3
20260905232314 92 207 3.0 9.0 0.00 0.00 0.00 66 1011.4
20260905231814 93 196 4.0 9.0 0.00 0.00 0.00 66 1011.4
20260905231314 93 142 5.0 9.0 0.00 0.00 0.00 65 1011.4
20260905230815 93 167 4.0 8.0 0.00 0.00 0.00 64 1011.4
20260905225814 94 185 3.0 10.0 0.00 0.00 0.00 62 1011.4
20260905224814 94 161 5.0 9.0 0.00 0.00 0.00 60 1011.1
20260905224314 94 176 2.0 4.0 0.00 0.00 0.00 59 1011.1
20260905223814 93 171 2.0 4.0 0.00 0.00 0.00 59 1011.1
20260905223313 93 98 0.0 0.0 0.00 0.00 0.00 60 1011.1
20260905222313 96 97 0.0 2.0 0.00 0.00 0.00 56 1011.1
20260905221813 97 97 0.0 2.0 0.00 0.00 0.00 54 1011.1
20260905220312 98 96 1.0 5.0 0.00 0.00 0.00 47 1011.2
20260905215812 99 104 0.0 5.0 0.00 0.00 0.00 47 1011.2
20260905214812 99 101 4.0 7.0 0.00 0.00 0.00 47 1011.2
20260905213812 99 46 4.0 8.0 0.00 0.00 0.00 47 1011.2
20260905212311 99 26 6.0 10.0 0.00 0.00 0.00 48 1011.3
20260905211811 98 24 2.0 8.0 0.00 0.00 0.00 48 1011.4
20260905211311 99 26 4.0 8.0 0.00 0.00 0.00 47 1011.5
20260905210811 98 113 2.0 8.0 0.00 0.00 0.00 47 1011.4
20260905205811 99 29 5.0 8.0 0.00 0.00 0.00 49 1011.5
20260905205311 98 309 4.0 8.0 0.00 0.00 0.00 49 1011.6
20260905204811 98 79 4.0 8.0 0.00 0.00 0.00 50 1011.7
20260905204311 99 119 1.0 9.0 0.00 0.00 0.00 48 1011.7
20260905203811 99 67 2.0 10.0 0.00 0.00 0.00 47 1011.7
20260905202310 99 43 9.0 11.0 0.00 0.00 0.00 48 1011.7
20260905201810 98 101 6.0 9.0 0.00 0.00 0.00 49 1011.7
20260905201310 98 136 2.0 9.0 0.00 0.00 0.00 50 1011.8
20260905200310 98 104 3.0 10.0 0.00 0.00 0.00 48 1011.9
20260905195809 98 59 1.0 13.0 0.00 0.00 0.00 48 1011.9
20260905195310 98 88 9.0 13.0 0.00 0.00 0.00 49 1012.0
20260905194809 99 57 2.0 8.0 0.00 0.00 0.00 49 1012.1
20260905194309 98 128 4.0 9.0 0.00 0.00 0.00 49 1012.2
20260905193309 99 90 2.0 10.0 0.00 0.00 0.00 49 1012.4
20260905192309 98 59 5.0 10.0 0.00 0.00 0.00 49 1012.4
20260905191809 98 125 7.0 10.0 0.00 0.00 0.00 50 1012.4
20260905191309 98 101 7.0 10.0 0.00 0.00 0.00 49 1012.5
20260905190809 98 101 9.0 10.0 0.00 0.00 0.00 51 1012.7
20260905190308 97 148 8.0 10.0 0.00 0.00 0.00 52 1012.7
20260905185808 98 141 3.0 10.0 0.00 0.00 0.00 50 1012.9
20260905184808 98 115 7.0 10.0 0.00 0.00 0.00 51 1013.1
20260905184308 97 49 4.0 12.0 0.00 0.00 0.00 51 1013.1
20260905183808 97 139 3.0 12.0 0.00 0.00 0.00 53 1013.2
20260905182807 97 139 3.0 9.0 0.00 0.00 0.00 52 1013.4
20260905182307 97 113 3.0 9.0 0.00 0.00 0.00 54 1013.5
20260905181307 97 38 1.0 12.0 0.00 0.00 0.00 55 1013.7
20260905180807 97 44 5.0 12.0 0.00 0.00 0.00 55 1013.7
20260905180306 96 66 5.0 14.0 0.00 0.00 0.00 55 1013.7
20260905175807 96 328 8.0 14.0 0.00 0.00 0.00 54 1013.9
20260905175307 97 96 8.0 10.0 0.00 0.00 0.00 55 1013.9
20260905174806 97 57 5.0 10.0 0.00 0.00 0.00 54 1013.9
20260905173806 96 86 2.0 10.0 0.00 0.00 0.00 55 1014.1
20260905173306 96 57 1.0 11.0 0.00 0.00 0.00 55 1014.2
20260905171805 96 44 3.0 10.0 0.00 0.00 0.00 58 1014.4
20260905171306 96 39 6.0 9.0 0.00 0.00 0.00 58 1014.5
20260905170805 96 63 3.0 9.0 0.00 0.00 0.00 58 1014.6
20260905170305 95 101 3.0 9.0 0.00 0.00 0.00 58 1014.6
20260905165805 95 46 2.0 9.0 0.00 0.00 0.00 60 1014.7
20260905165306 95 123 7.0 9.0 0.00 0.00 0.00 59 1014.8
20260905164805 95 111 6.0 9.0 0.00 0.00 0.00 60 1014.9
20260905164305 95 51 3.0 9.0 0.00 0.00 0.00 61 1014.9
20260905163804 94 73 3.0 9.0 0.00 0.00 0.00 61 1014.9
20260905162805 94 119 4.0 9.0 0.00 0.00 0.00 63 1015.0
20260905162306 94 96 1.0 11.0 0.00 0.00 0.00 62 1015.1
20260905161805 94 115 7.0 11.0 0.00 0.00 0.00 64 1015.1
20260905161304 93 85 8.0 11.0 0.00 0.00 0.00 65 1015.1
20260905160804 93 350 2.0 10.0 0.00 0.00 0.00 64 1015.0
20260905160304 93 337 2.0 8.0 0.00 0.00 0.00 65 1015.0
20260905155804 92 17 3.0 9.0 0.00 0.00 0.00 66 1014.9
20260905155306 92 45 1.0 9.0 0.00 0.00 0.00 66 1014.9
20260905154804 92 17 8.0 8.0 0.00 0.00 0.00 65 1014.9
20260905154303 92 48 6.0 6.0 0.00 0.00 0.00 67 1014.9
20260905153803 91 338 2.0 8.0 0.00 0.00 0.00 67 1014.9
20260905153303 91 126 3.0 9.0 0.00 0.00 0.00 69 1015.0
20260905152803 90 315 4.0 10.0 0.00 0.00 0.00 69 1014.8
20260905152306 90 11 2.0 10.0 0.00 0.00 0.00 69 1014.8
20260905151333 90 30 4.0 6.0 0.00 0.00 0.00 71 1015.0
20260905145754 89 44 4.0 6.0 0.00 0.00 0.00 73 1015.0
20260905145254 88 28 5.0 6.0 0.00 0.00 0.00 74 1015.0
20260905143754 87 84 0.0 8.0 0.00 0.00 0.00 78 1015.1
20260905143254 86 323 5.0 6.0 0.00 0.00 0.00 78 1015.2
20260905142754 86 35 2.0 6.0 0.00 0.00 0.00 78 1015.3
20260905142254 86 23 1.0 5.0 0.00 0.00 0.00 79 1015.3
20260905141253 85 47 2.0 5.0 0.00 0.00 0.00 79 1015.3
20260905140753 85 91 0.0 5.0 0.00 0.00 0.00 80 1015.4
20260905140253 84 101 3.0 5.0 0.00 0.00 0.00 81 1015.4
20260905135753 84 55 3.0 4.0 0.00 0.00 0.00 81 1015.4
20260905135253 84 82 3.0 4.0 0.00 0.00 0.00 82 1015.5
20260905134753 83 57 2.0 4.0 0.00 0.00 0.00 82 1015.5
20260905134253 83 42 0.0 5.0 0.00 0.00 0.00 83 1015.6
20260905133753 83 41 1.0 5.0 0.00 0.00 0.00 84 1015.6
20260905132753 81 103 2.0 3.0 0.00 0.00 0.00 87 1015.5
20260905132253 81 104 0.0 1.0 0.00 0.00 0.00 88 1015.5
20260905131753 80 201 0.0 1.0 0.00 0.00 0.00 90 1015.5
20260905131252 79 161 0.0 2.0 0.00 0.00 0.00 92 1015.5
20260905125747 77 208 1.0 2.0 0.00 0.00 0.00 96 1015.4
20260905125317 76 208 0.0 0.0 0.00 0.00 0.00 97 1015.3
20260905124747 76 208 0.0 0.0 0.00 0.00 0.00 97 1015.5
20260905124247 75 209 0.0 0.0 0.00 0.00 0.00 97 1015.5
20260905123747 75 209 0.0 0.0 0.00 0.00 0.00 98 1015.5
20260905123246 74 209 0.0 0.0 0.00 0.00 0.00 98 1015.5
20260905122747 74 209 0.0 0.0 0.00 0.00 0.00 97 1015.5
20260905122316 73 209 0.0 0.0 0.00 0.00 0.00 96 1015.3
20260905121816 73 209 0.0 0.0 0.00 0.00 0.00 96 1015.3
20260905121317 73 208 0.0 0.0 0.00 0.00 0.00 96 1015.2
20260905120746 73 208 0.0 0.0 0.00 0.00 0.00 96 1015.3
20260905120316 73 208 0.0 0.0 0.00 0.00 0.00 96 1015.3
20260905115816 72 208 0.0 0.0 0.00 0.00 0.00 96 1015.3
20260905115246 72 208 0.0 0.0 0.00 0.00 0.00 96 1015.2
20260905114746 72 208 0.0 0.0 0.00 0.00 0.00 96 1015.3
20260905114316 72 208 0.0 0.0 0.00 0.00 0.00 95 1015.3